Change the Weather History Date:

Sunday, February 26, 2012

  Actual Average Record
Temperature  
Mean Temperature 34 °F -  
Max Temperature 44 °F 35 °F 57 °F (1976)
Min Temperature 23 °F 13 °F -20 °F (1963)
Degree Days  
Heating Degree Days 32    
Moisture  
Dew Point 22 °F    
Average Humidity 60    
Maximum Humidity 80    
Minimum Humidity 45    
Precipitation  
Precipitation 0.00 in - - ()
Sea Level Pressure  
Sea Level Pressure 29.96 in    
Wind  
Wind Speed 11 mph (South)    
Max Wind Speed 24 mph    
Max Gust Speed 34 mph    
Visibility 10 miles    
Events      
Averages and records for this station are not official NWS values.
T = Trace of Precipitation, MM = Missing Value Source: NWS Daily Summary

Daily Weather History Graph

Daily Weather History Graph

Search for Another Location

Airport or City:

Trip Planner

Search our weather history database for the weather conditions in past years. The results will help you decide how hot, cold, wet, or windy it might be!

Date:

Astronomy

Feb. 26, 2012 Rise Set
Actual Time 6:39 AM CST 5:39 PM CST
Civil Twilight 6:09 AM CST 6:08 PM CST
Nautical Twilight 5:36 AM CST 6:42 PM CST
Astronomical Twilight 5:02 AM CST 7:16 PM CST
Moon 8:21 AM CST (2/26) 10:51 PM CST (2/26)
Length of Visible Light 11h 58m
Length of Day
11h 00m
Waxing Crescent, 21% of the Moon is Illuminated
Feb 26
Waxing Crescent
Feb 29
First Quarter
Mar 8
Full
Mar 14
Last Quarter
Mar 22
New

Hourly Weather History & Observations

Time (CST) Temp. Windchill Dew Point Humidity Pressure Visibility Wind Dir Wind Speed Gust Speed Precip Events Conditions
12:15 AM 26.6 °F 21.2 °F 19.4 °F 74% 30.24 in 10.0 mi South 4.6 mph - N/A   Mostly Cloudy
12:35 AM 26.6 °F 21.2 °F 17.6 °F 69% 30.24 in 10.0 mi SSE 4.6 mph - N/A   Mostly Cloudy
12:55 AM 26.6 °F 22.6 °F 17.6 °F 69% 30.23 in 10.0 mi SE 3.5 mph - N/A   Clear
1:15 AM 24.8 °F 20.5 °F 17.6 °F 74% 30.23 in 10.0 mi SSE 3.5 mph - N/A   Clear
1:55 AM 23.0 °F 15.8 °F 17.6 °F 80% 30.21 in 10.0 mi SE 5.8 mph - N/A   Clear
2:15 AM 24.8 °F 17.9 °F 17.6 °F 74% 30.21 in 10.0 mi SE 5.8 mph - N/A   Mostly Cloudy
3:35 AM 24.8 °F 17.9 °F 17.6 °F 74% 30.20 in 10.0 mi SE 5.8 mph - N/A   Mostly Cloudy
3:55 AM 24.8 °F 17.9 °F 17.6 °F 74% 30.20 in 10.0 mi SE 5.8 mph - N/A   Mostly Cloudy
4:15 AM 24.8 °F 16.1 °F 17.6 °F 74% 30.19 in 10.0 mi ESE 8.1 mph - N/A   Overcast
4:55 AM 24.8 °F 16.1 °F 17.6 °F 74% 30.17 in 10.0 mi ESE 8.1 mph - N/A   Scattered Clouds
5:15 AM 23.0 °F 13.9 °F 17.6 °F 80% 30.16 in 10.0 mi ESE 8.1 mph - N/A   Clear
6:35 AM 23.0 °F 13.1 °F 15.8 °F 74% 30.13 in 10.0 mi SE 9.2 mph - N/A   Mostly Cloudy
6:55 AM 24.8 °F 14.6 °F 15.8 °F 69% 30.12 in 10.0 mi SE 10.4 mph - N/A   Overcast
7:15 AM 24.8 °F 12.9 °F 14.0 °F 64% 30.11 in 10.0 mi SE 13.8 mph - N/A   Overcast
7:35 AM 26.6 °F 16.2 °F 14.0 °F 59% 30.11 in 10.0 mi SE 11.5 mph - N/A   Overcast
7:55 AM 26.6 °F 15.7 °F 14.0 °F 59% 30.11 in 10.0 mi SE 12.7 mph - N/A   Overcast
8:15 AM 26.6 °F 15.7 °F 15.8 °F 64% 30.09 in 10.0 mi ESE 12.7 mph - N/A   Overcast
8:55 AM 28.4 °F 17.0 °F 19.4 °F 69% 30.06 in 10.0 mi ESE 15.0 mph 20.7 mph N/A   Overcast
9:15 AM 28.4 °F 17.0 °F 19.4 °F 69% 30.05 in 10.0 mi SE 15.0 mph 21.9 mph N/A   Overcast
9:35 AM 30.2 °F 18.9 °F 19.4 °F 64% 30.03 in 10.0 mi SE 16.1 mph 21.9 mph N/A   Overcast
9:55 AM 30.2 °F 18.9 °F 21.2 °F 69% 30.01 in 10.0 mi SE 16.1 mph 24.2 mph N/A   Mostly Cloudy
10:15 AM 32.0 °F 20.8 °F 21.2 °F 64% 29.99 in 10.0 mi SE 17.3 mph 27.6 mph N/A   Mostly Cloudy
10:35 AM 32.0 °F 20.8 °F 21.2 °F 64% 29.96 in 10.0 mi SE 17.3 mph 24.2 mph N/A   Mostly Cloudy
10:55 AM 33.8 °F 24.3 °F 21.2 °F 60% 29.96 in 10.0 mi SE 13.8 mph 26.5 mph N/A   Clear
11:15 AM 35.6 °F 24.5 °F 19.4 °F 52% 29.94 in 10.0 mi SE 20.7 mph 29.9 mph N/A   Clear
11:35 AM 37.4 °F 27.2 °F 19.4 °F 48% 29.93 in 10.0 mi SSE 19.6 mph 29.9 mph N/A   Clear
11:55 AM 39.2 °F 28.5 °F 19.4 °F 45% 29.90 in 10.0 mi SSE 24.2 mph 32.2 mph N/A   Clear
12:15 PM 39.2 °F 28.7 °F 21.2 °F 49% 29.91 in 10.0 mi South 23.0 mph 29.9 mph N/A   Clear
12:35 PM 39.2 °F 30.5 °F 21.2 °F 49% 29.88 in 10.0 mi South 16.1 mph 31.1 mph N/A   Scattered Clouds
12:55 PM 41.0 °F 32.5 °F 21.2 °F 45% 29.86 in 10.0 mi South 17.3 mph 28.8 mph N/A   Scattered Clouds
1:15 PM 41.0 °F 32.2 °F 23.0 °F 49% 29.84 in 10.0 mi SSE 18.4 mph 27.6 mph N/A   Scattered Clouds
1:35 PM 42.8 °F 34.3 °F 23.0 °F 46% 29.86 in 10.0 mi SSE 19.6 mph 27.6 mph N/A   Mostly Cloudy
1:55 PM 42.8 °F 35.1 °F 23.0 °F 46% 29.84 in 10.0 mi South 16.1 mph 23.0 mph N/A   Mostly Cloudy
2:15 PM 42.8 °F 35.8 °F 24.8 °F 49% 29.84 in 10.0 mi South 13.8 mph - N/A   Mostly Cloudy
2:35 PM 42.8 °F 34.8 °F 24.8 °F 49% 29.84 in 10.0 mi South 17.3 mph 24.2 mph N/A   Mostly Cloudy
2:55 PM 42.8 °F 35.4 °F 24.8 °F 49% 29.83 in 10.0 mi South 15.0 mph 24.2 mph N/A   Overcast
3:15 PM 44.6 °F 37.4 °F 26.6 °F 49% 29.82 in 10.0 mi South 16.1 mph 23.0 mph N/A   Overcast
3:35 PM 44.6 °F 37.4 °F 24.8 °F 46% 29.81 in 10.0 mi South 16.1 mph 23.0 mph N/A   Scattered Clouds
3:55 PM 44.6 °F 38.4 °F 26.6 °F 49% 29.81 in 10.0 mi South 12.7 mph 21.9 mph N/A   Clear
4:15 PM 44.6 °F 37.4 °F 26.6 °F 49% 29.81 in 10.0 mi South 16.1 mph - N/A   Scattered Clouds
4:35 PM 44.6 °F 39.2 °F 26.6 °F 49% 29.80 in 10.0 mi South 10.4 mph 17.3 mph N/A   Clear
4:55 PM 44.6 °F 38.8 °F 26.6 °F 49% 29.81 in 10.0 mi South 11.5 mph - N/A   Scattered Clouds
5:15 PM 42.8 °F 37.0 °F 26.6 °F 53% 29.81 in 10.0 mi South 10.4 mph - N/A   Mostly Cloudy
5:35 PM 42.8 °F 38.0 °F 26.6 °F 53% 29.81 in 10.0 mi SSE 8.1 mph - N/A   Mostly Cloudy
5:55 PM 41.0 °F 35.8 °F 28.4 °F 61% 29.81 in 10.0 mi SSE 8.1 mph - N/A   Mostly Cloudy
6:15 PM 41.0 °F 35.2 °F 28.4 °F 61% 29.81 in 10.0 mi SSE 9.2 mph - N/A   Mostly Cloudy
6:35 PM 39.2 °F 33.0 °F 28.4 °F 65% 29.81 in 10.0 mi South 9.2 mph - N/A   Clear
6:55 PM 39.2 °F 32.5 °F 28.4 °F 65% 29.83 in 10.0 mi South 10.4 mph - N/A   Clear
7:15 PM 41.0 °F 33.1 °F 28.4 °F 61% 29.83 in 10.0 mi SW 15.0 mph 18.4 mph N/A   Clear
7:35 PM 42.8 °F 35.4 °F 28.4 °F 57% 29.83 in 10.0 mi SW 15.0 mph 26.5 mph N/A   Clear
7:55 PM 41.0 °F 34.3 °F 28.4 °F 61% 29.84 in 10.0 mi SW 11.5 mph - N/A   Clear
8:15 PM 42.8 °F 34.3 °F 26.6 °F 53% 29.85 in 10.0 mi WSW 19.6 mph 26.5 mph N/A   Clear
8:35 PM 41.0 °F 31.4 °F 26.6 °F 57% 29.87 in 10.0 mi West 21.9 mph 28.8 mph N/A   Clear
8:55 PM 37.4 °F 27.8 °F 26.6 °F 65% 29.88 in 10.0 mi West 17.3 mph 26.5 mph N/A   Clear
9:15 PM 35.6 °F 25.5 °F 26.6 °F 70% 29.89 in 10.0 mi West 17.3 mph 23.0 mph N/A   Clear
9:35 PM 35.6 °F 26.2 °F 24.8 °F 65% 29.89 in 10.0 mi West 15.0 mph 23.0 mph N/A   Scattered Clouds
9:55 PM 35.6 °F 27.1 °F 23.0 °F 60% 29.89 in 10.0 mi WSW 12.7 mph - N/A   Scattered Clouds
10:15 PM 35.6 °F 24.5 °F 21.2 °F 56% 29.90 in 10.0 mi WSW 20.7 mph 33.4 mph N/A   Scattered Clouds
10:35 PM 33.8 °F 24.3 °F 21.2 °F 60% 29.90 in 10.0 mi WSW 13.8 mph 26.5 mph N/A   Clear
10:55 PM 33.8 °F 22.8 °F 21.2 °F 60% 29.89 in 10.0 mi WSW 18.4 mph 21.9 mph N/A   Clear
11:15 PM 33.8 °F 23.2 °F 21.2 °F 60% 29.89 in 10.0 mi WSW 17.3 mph 26.5 mph N/A   Clear
11:35 PM 33.8 °F 22.2 °F 21.2 °F 60% 29.89 in 10.0 mi WSW 20.7 mph 29.9 mph N/A   Clear
11:55 PM 33.8 °F 21.9 °F 21.2 °F 60% 29.90 in 10.0 mi West 21.9 mph 34.5 mph N/A   Clear